Location: Recife
(8.0585°S, 34.8848°W)
Time: 09:37:58
(UTC-03:00)

Courier 1B Rocket - Pass Details

Date: 18 April 2026
Orbit: 920 x 1201 km, 28.2° (Epoch: 13 May)

Event Time Altitude Azimuth Distance (km) Brightness Sun altitude
Rises 15:00:06 0° 263° (W) 4,080 9.1 31.8°
Reaches altitude 10° 15:03:27 10° 275° (W) 3,126 9.1 31.0°
Maximum altitude 15:09:47 27° 329° (NNW) 2,113 7.8 29.5°
Drops below altitude 10° 15:16:03 10° 24° (NNE) 3,078 7.6 28.0°
Sets 15:19:21 0° 36° (NE) 4,007 8.0 27.2°
